This is the latest recevied weather packets stored in our database for station/object DB0HRC-6. If no packets are shown the sender has not sent any weather packets the latest 1 day(s).
| Time | Temp. | Humidity | Pressure | Rain* | Wind** | Luminosity | Snow |
|---|---|---|---|---|---|---|---|
| 1777977013 | 15.56° C | 77% | 1005.4 hPa | 0 mm | 0.45 m/s, 337° | - | - |
| 1777976113 | 15.56° C | 78% | 1005.5 hPa | 0 mm | 0 m/s | - | - |
| 1777975212 | 15.56° C | 77% | 1005.6 hPa | 0 mm | 0 m/s | - | - |
| 1777974314 | 15.56° C | 78% | 1005.6 hPa | 0 mm | 0 m/s | - | - |
| 1777973415 | 15° C | 79% | 1005.8 hPa | 0 mm | 0 m/s | - | - |
| 1777972513 | 15.56° C | 79% | 1005.9 hPa | 0 mm | 0 m/s | - | - |
| 1777971612 | 15.56° C | 80% | 1005.8 hPa | 0 mm | 0 m/s | - | - |
| 1777970712 | 15.56° C | 81% | 1005.8 hPa | 0 mm | 0 m/s | - | - |
| 1777969813 | 14.44° C | 83% | 1005.8 hPa | 0 mm | 0 m/s | - | - |
| 1777968913 | 14.44° C | 85% | 1005.7 hPa | 0 mm | 0 m/s | - | - |
| 1777968013 | 13.89° C | 86% | 1005.7 hPa | 0 mm | 0 m/s | - | - |
| 1777967113 | 13.89° C | 88% | 1005.5 hPa | 0 mm | 0 m/s | - | - |
| 1777966212 | 13.89° C | 88% | 1005.4 hPa | 0 mm | 0 m/s | - | - |
| 1777965313 | 13.33° C | 88% | 1005.6 hPa | 0 mm | 0 m/s | - | - |
| 1777964413 | 13.33° C | 88% | 1005.6 hPa | 0 mm | 0 m/s | - | - |
| 1777963512 | 13.33° C | 89% | 1005.5 hPa | 0 mm | 0 m/s | - | - |
| 1777962612 | 13.33° C | 89% | 1005.8 hPa | 0 mm | 0 m/s | - | - |
| 1777961712 | 13.33° C | 89% | 1006 hPa | 0 mm | 0 m/s | - | - |
| 1777960812 | 12.78° C | 89% | 1006 hPa | 0 mm | 0 m/s | - | - |
| 1777959912 | 12.78° C | 89% | 1006 hPa | 0 mm | 0 m/s | - | - |
| 1777959013 | 12.78° C | 89% | 1006.2 hPa | 0 mm | 0 m/s | - | - |
| 1777958112 | 12.78° C | 89% | 1006.1 hPa | 0 mm | 0 m/s | - | - |
* Rain latest hour (hover to see other rain measurements)
** Current wind speed in m/s (hover to see current wind gust speed)